Vertical_Velocity
0 -0 -2 -2 -1 0 -0 -1 -2 0 2 1 1 1 1 1 0 -0 0 0 -0 1 1 2 1 1 1 1 0 1 1 1 1 1 1 -1 -0 1 0 -1 0 -0 1 1 1 -1 -0
1 -0 0 -2 -1 -1 -1 -1 -1 1 1 1 1 0 1 1 0 0 1 -0 0 1 1 1 2 2 2 0 0 -0 -1 -0 1 1 1 -0 0 -1 1 -0 2 0 -2 0 -0 -3 1
-1 -0 0 0 0 -1 -2 -1 0 1 2 1 2 2 1 1 1 1 1 1 1 2 1 1 3 3 1 -1 -0 1 0 0 1 0 -0 -0 0 2 1 -3 1 -0 3 3 -6 -2 6
-1 -0 -0 0 0 -0 -1 -1 -1 0 1 0 1 2 1 1 0 0 0 0 1 1 0 1 1 2 2 -0 0 -0 -1 -0 1 0 -0 -0 -1 -1 2 -2 -0 -0 2 0 -6 1 0
0 -0 -1 -1 1 -0 0 1 -1 -1 -1 -0 -1 -1 0 -0 1 1 1 -0 -0 1 -0 1 1 2 2 2 -1 1 -0 -1 -1 -0 0 -0 -2 -1 2 2 -0 1 -3 0 -0 0 -5
2 1 -0 -1 -1 0 -0 0 0 -1 -1 -1 -1 -0 -0 -1 -0 0 1 0 0 1 1 1 1 1 1 3 1 -0 2 -1 0 0 -0 -2 -3 -1 4 -1 1 -7 -1 -0 5 1 -7
0 2 1 -0 -2 -0 1 0 -0 0 0 -1 -1 -1 -0 -1 -0 1 1 1 -0 1 0 1 2 2 2 0 2 1 1 -0 1 2 -1 -5 -4 12 -8 -5 -4 -2 -3 -5 8 -3 -15
-1 1 -1 1 0 -0 0 1 1 -0 -0 -1 -1 -0 -2 -1 -0 0 1 1 0 2 3 2 1 2 2 2 1 1 0 -1 2 0 -3 0 6 -5 -2 -0 -3 -2 -4 9 2 4 -18
-1 -2 0 -0 -1 0 -0 0 0 1 1 1 -0 0 -0 -1 -1 1 2 2 1 1 1 2 -1 -0 2 2 2 1 -1 0 3 3 -1 -8 10 2 3 -1 -4 5 -4 7 -11 -1 -8
-0 -1 -0 -0 -0 1 0 0 -1 -1 -0 1 1 -0 0 2 -0 -1 1 0 -0 1 -0 1 -0 -2 -1 -2 3 0 -1 1 4 2 -4 -10 18 2 -4 1 -3 -14 15 -5 1 -10 -4
-0 0 0 -2 -1 -0 0 1 0 -1 -1 -1 2 -2 2 -3 0 0 -0 -1 -0 0 -7 -2 0 1 1 3 1 2 1 0 1 -2 -3 5 8 -4 -3 11 -14 7 0 1 0 -4 -9
0 -1 0 -1 -2 -1 -0 -0 -1 -1 -0 1 1 -1 -2 0 -2 0 0 0 0 -1 -4 -4 1 -0 1 1 1 -1 -3 2 -1 -2 -11 9 -7 -1 5 2 4 -2 7 2 -0 1 -34
-2 0 -2 -1 -1 -1 -1 0 0 -0 1 1 -1 0 -0 1 2 1 1 0 -1 0 2 -3 2 0 3 -3 5 2 3 4 0 -12 4 -1 4 9 -3 -6 5 5 4 -5 -15 -2 -18
-1 -1 -0 1 -2 -2 -1 0 -1 -2 2 -1 -0 2 0 1 1 1 1 -1 2 6 2 5 3 -0 -5 4 -3 -2 -3 1 -6 -5 -8 -13 5 8 14 5 2 -4 8 1 -3 0 -0
-1 1 1 0 -1 -1 -1 0 -2 -1 2 1 1 1 1 0 -0 -0 -1 -0 2 3 0 -1 -1 -0 -2 2 -5 4 4 1 -4 2 2 -10 -3 4 9 2 0 3 0 16 -2 -4 -3
-2 -0 -1 -1 -0 -0 -0 1 -1 -1 1 1 1 1 2 1 -0 -1 -2 2 1 1 1 1 3 2 0 3 -6 -2 3 6 -9 -2 -3 -14 -38 12 9 4 5 5 8 -2 11 -15 -4
-2 -1 -2 1 1 1 3 3 3 3 3 4 4 3 3 3 1 0 -0 2 2 2 0 -1 1 -1 0 2 1 1 0 -1 6 4 3 -8 -17 13 2 16 7 8 -4 9 13 -1 -5
-1 -1 0 -2 6 3 1 1 0 3 2 3 2 1 2 3 0 1 -1 -1 2 -2 -2 -1 -1 1 -0 -0 2 -2 -0 -1 4 5 1 2 -17 -37 3 12 6 1 6 4 7 -4 -12
-3 -3 1 4 3 0 -2 1 2 3 3 2 -0 0 -0 0 -1 1 0 1 1 2 -2 0 -2 0 2 -3 -12 3 3 -2 3 -3 -9 9 -12 -27 -14 9 19 -1 1 3 7 4 -3
-0 -2 -1 4 3 1 3 3 2 2 1 2 -0 -1 -1 1 0 -1 -0 0 1 0 1 -4 -4 -2 -3 1 2 -10 -4 2 -1 -3 -5 -10 1 1 -15 -10 -5 16 8 4 18 19 3
1 2 -1 -5 0 3 3 2 1 1 2 0 -0 0 1 -0 4 0 -1 1 -0 -2 -1 3 2 -3 1 -3 -2 -0 3 -1 11 1 -7 -1 -1 -3 4 -2 -4 -9 2 9 5 0 16
2 -0 -3 2 1 3 1 -0 3 2 1 0 -2 -1 0 -2 -2 -1 -1 1 2 -5 3 -1 -3 -1 -5 -4 -5 6 -5 -5 8 5 1 -9 -2 -6 -3 4 5 -15 -8 4 7 9 2
-1 3 1 2 0 0 1 2 -1 -0 1 -2 -0 2 2 0 -1 -1 -2 -2 0 5 1 -3 1 3 -2 -3 -5 -6 -9 -2 -7 -2 6 6 -4 -7 -5 3 -2 -8 1 -1 4 6 2
4 4 2 2 0 0 0 1 2 3 3 2 -1 -1 -1 -2 -4 0 0 2 -5 -7 2 -3 -7 -1 -5 -2 2 -4 -1 -1 -6 -1 1 1 -4 2 -11 7 -3 -2 -2 0 1 4 6
1 3 0 2 1 2 1 -2 -4 -2 -2 -2 -1 -2 -4 -4 -2 -1 -2 1 -4 -3 -1 -1 -5 1 -4 -4 -2 1 -4 -4 3 -3 1 -2 -2 -4 -4 1 -4 -0 1 -1 0 7 4
4 2 0 -1 0 -1 0 -1 -1 -4 -2 -0 -2 -4 -2 -4 -1 -5 -6 -2 -1 -5 -9 -6 -8 -3 -3 -3 -3 -1 -2 -2 1 -1 -1 -4 -1 5 1 -1 -9 2 0 1 0 2 5
-0 -0 -1 -2 -0 -1 -2 0 0 -0 -2 -3 -3 -5 -3 -1 0 -3 -2 -4 -1 -3 1 1 -7 -4 -6 -4 -3 -5 -0 1 1 3 0 3 3 -1 -5 -4 -6 -0 -2 -2 -4 -3 -1
1 1 1 2 1 0 -0 -2 -2 -0 -2 0 -3 -6 -4 -3 -2 -4 -3 -5 -4 -6 -5 -6 -1 -5 -4 1 1 -0 -3 -1 -0 -0 -2 -0 1 2 2 2 -3 -1 -2 -3 -1 -2 3
2 -0 1 1 0 -0 -2 -2 -4 -3 -0 -0 -1 -1 -5 -4 -4 -4 -5 -4 -7 -11 -5 -8 -2 1 -3 -1 -1 1 -1 -1 -2 0 -1 -2 -2 -3 -2 -2 -1 -0 0 -1 -0 -0 -1
Height
5754 5753 5752 5750 5747 5746 5744 5744 5743 5742 5742 5742 5742 5743 5744 5746 5748 5750 5751 5753 5755 5757 5759 5762 5764 5766 5768 5770 5773 5774 5776 5778 5779 5781 5783 5784 5786 5788 5789 5790 5791 5791 5792 5793 5793 5793 5793
5752 5751 5750 5749 5747 5745 5744 5744 5743 5743 5743 5743 5743 5744 5745 5746 5747 5749 5750 5751 5753 5755 5757 5759 5762 5763 5766 5768 5770 5772 5774 5775 5777 5778 5779 5781 5783 5784 5785 5786 5787 5788 5788 5789 5789 5789 5790
5750 5749 5748 5746 5745 5745 5744 5744 5743 5742 5742 5742 5743 5743 5744 5745 5746 5747 5748 5749 5750 5752 5754 5756 5758 5760 5763 5765 5767 5770 5770 5772 5773 5774 5776 5777 5779 5780 5781 5781 5782 5783 5784 5784 5783 5784 5786
5747 5746 5745 5744 5743 5743 5743 5743 5742 5742 5741 5742 5742 5742 5743 5743 5744 5745 5745 5746 5748 5749 5751 5753 5755 5756 5759 5761 5763 5765 5766 5768 5769 5770 5771 5772 5774 5775 5776 5776 5777 5777 5779 5779 5778 5779 5780
5744 5743 5742 5741 5741 5740 5740 5741 5741 5741 5740 5740 5740 5740 5741 5742 5742 5743 5743 5744 5745 5746 5748 5750 5752 5753 5755 5757 5759 5761 5762 5763 5764 5765 5766 5767 5768 5770 5771 5771 5771 5772 5771 5772 5773 5773 5772
5740 5739 5738 5738 5737 5737 5737 5737 5737 5738 5738 5738 5737 5737 5738 5739 5739 5740 5741 5742 5742 5744 5745 5746 5748 5750 5751 5753 5754 5754 5757 5757 5759 5760 5761 5762 5762 5764 5765 5765 5765 5762 5764 5766 5767 5767 5764
5734 5734 5733 5733 5733 5733 5733 5733 5733 5733 5734 5735 5735 5735 5735 5735 5736 5736 5737 5739 5741 5742 5741 5743 5744 5745 5746 5747 5748 5749 5750 5751 5752 5753 5753 5753 5756 5760 5757 5755 5756 5756 5756 5757 5761 5758 5754
5727 5728 5727 5727 5727 5727 5727 5728 5728 5728 5729 5729 5730 5731 5732 5732 5732 5733 5733 5734 5735 5736 5737 5737 5738 5740 5741 5741 5742 5743 5744 5745 5746 5746 5745 5747 5748 5749 5748 5748 5748 5748 5748 5749 5750 5749 5743
5719 5720 5721 5721 5721 5721 5722 5722 5723 5723 5723 5724 5725 5726 5727 5727 5728 5728 5729 5730 5730 5730 5732 5733 5731 5733 5735 5736 5736 5736 5737 5737 5738 5739 5738 5738 5741 5741 5740 5739 5738 5740 5738 5738 5737 5738 5735
5711 5712 5713 5714 5714 5714 5715 5716 5717 5717 5718 5718 5719 5719 5720 5721 5723 5722 5723 5724 5724 5725 5726 5729 5728 5728 5727 5728 5729 5729 5729 5730 5729 5730 5729 5729 5732 5732 5731 5731 5729 5728 5729 5726 5726 5725 5725
5704 5704 5705 5705 5706 5707 5708 5709 5710 5711 5711 5712 5713 5713 5714 5714 5715 5716 5717 5717 5718 5719 5719 5722 5721 5721 5721 5721 5722 5721 5721 5720 5718 5718 5720 5721 5720 5721 5721 5721 5718 5721 5717 5715 5713 5713 5711
5695 5695 5696 5697 5698 5698 5699 5701 5702 5702 5703 5705 5706 5706 5707 5708 5708 5709 5709 5709 5711 5712 5710 5712 5712 5713 5715 5714 5713 5713 5712 5711 5709 5709 5709 5712 5709 5711 5711 5710 5709 5708 5705 5704 5701 5701 5697
5688 5687 5688 5689 5690 5690 5691 5692 5693 5694 5694 5696 5697 5698 5699 5700 5701 5701 5701 5702 5702 5701 5701 5702 5704 5705 5705 5704 5703 5702 5702 5701 5698 5698 5700 5700 5701 5702 5699 5698 5699 5698 5695 5689 5687 5686 5686
5682 5681 5681 5681 5681 5682 5683 5684 5684 5685 5686 5687 5688 5689 5690 5691 5691 5691 5692 5692 5692 5692 5693 5692 5693 5693 5692 5693 5691 5690 5690 5688 5686 5685 5684 5685 5690 5689 5689 5687 5685 5683 5682 5679 5670 5672 5674
5677 5675 5675 5674 5673 5674 5674 5676 5676 5677 5678 5679 5680 5681 5682 5682 5682 5682 5682 5682 5682 5683 5683 5682 5681 5681 5681 5681 5681 5678 5677 5676 5674 5674 5672 5669 5674 5674 5673 5671 5670 5669 5667 5666 5656 5656 5654
5673 5671 5668 5668 5667 5667 5668 5668 5669 5670 5671 5672 5673 5674 5674 5674 5675 5675 5675 5675 5674 5674 5674 5674 5673 5672 5672 5671 5669 5667 5666 5662 5659 5657 5655 5652 5652 5658 5658 5657 5657 5651 5650 5646 5643 5637 5636
5669 5666 5664 5662 5662 5662 5662 5662 5662 5663 5664 5665 5666 5667 5667 5668 5668 5668 5668 5668 5667 5666 5665 5665 5663 5662 5661 5660 5658 5656 5653 5652 5650 5646 5641 5638 5634 5642 5640 5641 5637 5634 5630 5628 5625 5621 5618
5664 5661 5659 5658 5657 5656 5657 5658 5659 5660 5661 5661 5661 5662 5662 5662 5662 5660 5659 5659 5659 5656 5655 5655 5654 5653 5651 5649 5647 5645 5643 5640 5637 5633 5629 5626 5618 5620 5621 5624 5617 5612 5610 5608 5603 5604 5601
5659 5655 5653 5652 5652 5651 5653 5655 5655 5656 5656 5657 5657 5657 5657 5656 5655 5654 5653 5652 5650 5650 5648 5646 5645 5643 5641 5639 5635 5633 5630 5626 5623 5617 5611 5611 5605 5602 5607 5607 5599 5590 5590 5591 5588 5584 5584
5652 5650 5648 5647 5648 5650 5652 5652 5653 5653 5654 5654 5654 5653 5651 5650 5648 5646 5645 5644 5642 5641 5640 5637 5635 5633 5629 5626 5622 5618 5614 5610 5604 5599 5593 5588 5586 5584 5585 5585 5575 5573 5573 5575 5572 5565 5562
5648 5646 5646 5646 5648 5649 5649 5650 5651 5651 5650 5650 5648 5647 5645 5643 5642 5639 5638 5636 5633 5631 5629 5626 5623 5620 5616 5612 5608 5603 5599 5594 5588 5580 5573 5569 5567 5563 5564 5562 5552 5548 5549 5550 5549 5548 5543
5644 5643 5643 5645 5646 5646 5647 5647 5646 5646 5645 5644 5642 5640 5637 5634 5632 5630 5628 5625 5622 5619 5617 5613 5608 5604 5598 5594 5589 5586 5579 5571 5570 5563 5554 5546 5546 5538 5543 5535 5529 5523 5526 5525 5522 5523 5523
5640 5641 5641 5642 5643 5643 5643 5642 5641 5640 5639 5637 5635 5633 5629 5625 5622 5620 5617 5614 5610 5606 5603 5598 5595 5590 5584 5579 5573 5565 5559 5553 5548 5544 5537 5532 5523 5518 5521 5509 5505 5504 5505 5503 5501 5499 5501
5636 5637 5638 5638 5638 5638 5637 5636 5635 5633 5632 5629 5627 5624 5620 5616 5613 5609 5606 5601 5596 5592 5588 5582 5577 5571 5566 5560 5554 5546 5540 5535 5529 5524 5517 5513 5507 5501 5499 5495 5491 5490 5488 5487 5486 5484 5482
5632 5633 5633 5633 5632 5632 5631 5629 5626 5625 5622 5619 5616 5613 5609 5605 5602 5598 5593 5588 5582 5577 5572 5566 5560 5555 5549 5544 5539 5530 5524 5517 5512 5507 5502 5498 5493 5490 5487 5485 5482 5482 5479 5476 5474 5473 5469
5627 5628 5628 5627 5626 5625 5624 5621 5618 5614 5611 5608 5604 5600 5597 5593 5589 5584 5579 5574 5568 5561 5555 5548 5544 5538 5533 5527 5521 5516 5508 5503 5499 5493 5490 5487 5485 5483 5479 5475 5471 5471 5468 5465 5463 5462 5459
5623 5623 5622 5621 5619 5617 5614 5612 5609 5605 5601 5596 5592 5589 5586 5581 5577 5571 5566 5561 5554 5547 5541 5534 5527 5523 5518 5511 5505 5500 5496 5492 5488 5485 5482 5479 5476 5472 5468 5465 5463 5460 5457 5454 5452 5453 5447
5617 5616 5615 5613 5611 5608 5605 5602 5598 5594 5591 5588 5583 5578 5574 5569 5564 5558 5552 5545 5539 5533 5527 5521 5515 5507 5501 5497 5492 5487 5483 5480 5478 5475 5472 5471 5468 5465 5461 5458 5456 5453 5449 5446 5443 5439 5437
5610 5609 5606 5604 5602 5599 5595 5591 5587 5584 5581 5577 5573 5567 5562 5557 5552 5546 5539 5532 5525 5517 5510 5504 5500 5493 5487 5483 5480 5477 5474 5471 5469 5468 5465 5464 5461 5458 5456 5452 5448 5445 5442 5438 5435 5431 5428